Theta_e
319 316 316 317 313 311 316 313 313 314 314 313 312 312 312 310 304 302 302 303 305 308 310 308 311 314 314 314 318 322 324 323 323 328 328 329 326 324 315 312 311 311 308 306 306 307 308 310 311 312 315 317 318 318 317 316 315 316 319 318 317 315 314 317 316 320 325 327 325 322 320 318 318 316
317 316 314 315 313 313 315 315 316 316 313 314 313 311 311 312 308 306 303 303 307 307 310 310 309 312 312 313 315 315 314 318 321 320 320 320 320 313 313 312 311 311 309 306 307 308 308 308 309 311 314 316 316 315 315 314 314 317 319 317 317 317 317 317 318 321 323 323 322 320 319 319 317 317
318 315 316 315 315 315 315 316 316 316 317 312 310 310 311 311 310 308 307 302 307 311 308 310 312 311 312 313 313 315 316 316 315 317 319 317 314 311 314 311 312 312 311 310 309 311 312 309 309 310 312 314 315 313 314 316 316 315 316 314 315 317 319 319 318 321 322 321 322 322 319 318 317 317
317 313 313 312 312 312 311 312 314 315 314 314 313 312 311 310 311 310 308 304 304 310 309 310 311 311 311 312 311 311 313 315 315 315 315 318 314 317 317 312 310 310 310 310 310 310 310 310 308 307 308 311 312 312 313 314 313 313 312 313 314 316 318 319 318 321 322 321 320 321 319 318 317 316
315 313 314 312 313 313 311 313 312 311 311 312 312 311 310 309 310 308 307 304 304 307 311 309 309 311 312 309 311 310 311 312 313 313 313 315 315 315 315 317 313 310 308 307 308 308 309 310 309 305 304 307 308 308 309 310 309 310 311 309 310 312 317 318 318 318 321 321 320 318 318 317 315 315
315 315 311 312 312 312 311 310 307 308 307 306 305 308 310 307 310 310 308 305 303 302 306 307 309 308 309 307 309 309 310 311 313 313 312 313 313 312 311 311 314 308 308 306 306 306 307 307 306 306 304 304 306 307 307 307 307 307 307 307 308 312 314 316 317 317 318 320 319 317 316 316 315 315
311 312 311 311 311 313 311 311 311 311 310 309 306 306 307 307 308 307 307 305 303 303 304 307 307 307 309 309 308 308 310 310 310 308 309 310 312 313 311 311 313 309 306 305 305 305 305 306 306 306 306 305 304 304 305 305 305 305 304 305 307 308 309 309 311 312 313 317 318 317 316 314 315 316
312 311 311 311 312 311 310 310 310 310 310 310 309 307 306 306 307 308 310 310 307 306 305 306 307 308 307 307 309 309 309 308 308 309 308 309 309 310 311 311 311 310 307 307 307 306 306 306 306 305 305 305 304 304 305 304 305 304 304 304 304 305 305 306 306 307 311 315 318 318 316 314 316 318
312 312 311 311 310 310 309 308 308 309 310 307 307 306 305 305 307 308 307 306 304 303 302 303 306 307 306 307 307 308 307 308 308 309 308 308 308 308 310 313 312 308 308 308 308 307 307 307 307 306 306 305 305 304 304 304 304 304 304 304 304 304 304 304 305 305 307 308 310 316 318 316 318 321
313 311 311 312 311 310 308 309 308 308 307 307 306 305 305 304 304 305 305 305 304 304 302 302 302 304 305 305 306 307 307 306 306 306 307 308 309 308 308 309 311 312 312 315 317 308 306 306 306 307 307 306 305 305 305 304 304 304 304 304 304 304 303 303 303 304 304 305 306 307 312 316 319 321
312 311 311 311 311 310 309 308 308 307 307 308 306 306 305 304 304 304 303 304 303 303 303 303 303 303 304 304 303 306 306 306 305 304 304 304 307 308 308 309 312 314 315 309 307 308 308 310 312 310 307 307 306 306 305 305 305 304 303 303 303 303 303 303 303 303 303 304 304 305 305 309 317 321
311 311 311 311 309 309 308 308 307 306 303 300 299 300 299 299 299 298 299 299 299 299 300 300 300 301 301 301 304 306 305 303 303 305 305 303 304 307 309 307 306 308 308 307 308 308 308 308 306 306 307 307 306 306 305 306 306 305 304 303 302 302 302 302 303 303 303 303 304 304 304 304 306 316
311 310 310 309 309 311 308 301 301 300 300 301 297 297 298 298 298 298 298 299 298 298 299 298 300 299 299 300 301 301 301 301 301 304 305 303 304 304 304 305 307 307 307 308 308 308 309 308 308 310 311 313 308 308 306 307 307 305 304 302 302 302 302 302 302 302 303 303 303 303 303 303 304 304
310 310 309 310 311 305 304 299 296 295 295 297 299 297 298 298 297 297 296 296 297 297 296 296 297 297 297 297 299 300 301 303 303 303 302 301 302 302 303 304 306 309 308 307 306 307 310 310 309 309 308 311 314 314 313 311 311 308 304 303 302 302 302 302 302 302 302 302 303 303 302 302 302 302
308 308 307 308 306 304 302 301 296 295 295 294 294 295 297 299 298 296 295 295 295 295 295 295 295 295 295 297 298 299 300 301 301 301 302 302 301 300 299 298 302 308 307 305 304 304 308 309 306 307 308 309 311 316 316 309 307 307 306 303 302 302 302 301 301 301 301 302 302 302 302 302 302 302
307 306 307 307 309 305 304 304 303 298 295 293 293 293 293 293 293 294 296 295 294 294 293 293 293 294 294 296 296 296 297 299 299 299 300 300 300 300 299 298 298 303 306 303 302 302 305 307 306 305 307 307 308 309 308 307 307 306 305 305 303 302 302 301 301 301 300 300 301 301 301 301 301 301
307 306 307 307 309 309 308 305 304 302 301 296 294 294 294 293 292 290 290 292 297 296 295 294 294 294 294 294 295 297 298 298 297 297 297 298 299 299 298 299 299 301 303 301 300 300 302 304 303 303 306 308 308 310 306 307 305 304 305 305 303 302 301 301 301 300 299 299 299 300 300 300 299 300
307 307 305 305 306 305 304 304 304 303 303 303 302 299 297 296 297 294 292 291 291 293 295 296 295 297 298 296 297 299 299 298 296 295 295 296 295 295 296 298 298 301 304 300 299 297 298 301 301 301 303 305 307 307 306 304 304 304 303 304 303 302 301 301 300 299 299 299 299 299 299 299 299 299
307 307 308 306 304 303 303 305 302 302 302 300 300 299 299 299 299 299 299 298 296 295 295 295 296 297 298 299 299 300 300 297 296 296 295 295 295 295 297 297 298 299 301 300 299 295 298 299 299 300 301 303 304 305 304 303 303 302 303 303 303 302 301 300 299 298 298 298 298 298 298 298 298 298
307 307 306 304 303 302 302 295 293 296 300 298 298 297 296 297 297 298 299 297 297 299 299 299 299 299 300 298 299 298 296 295 295 296 295 295 294 293 292 292 295 296 299 300 298 296 297 298 299 299 301 303 302 304 304 303 304 304 302 302 302 302 300 299 298 297 297 297 297 298 297 297 297 296
305 306 304 303 302 303 301 293 290 291 295 298 296 296 295 296 296 296 299 297 295 294 293 293 293 293 293 293 293 294 294 294 294 293 291 291 292 291 290 291 293 294 296 298 299 297 295 298 298 299 301 301 301 302 303 305 303 302 301 301 300 300 298 298 297 297 297 297 297 297 297 297 296 296
304 304 308 304 302 301 300 289 290 290 295 297 296 295 294 293 293 294 296 297 298 295 294 294 293 292 292 292 292 293 293 293 294 292 289 291 291 290 291 290 292 294 295 296 298 295 295 297 298 298 299 300 301 302 303 305 304 298 298 298 298 297 297 297 296 297 297 297 297 297 296 296 296 298
302 302 303 301 300 300 294 288 289 289 293 295 295 294 293 292 292 293 294 293 292 292 292 292 293 293 294 295 295 296 295 294 295 293 293 293 291 290 290 291 291 290 292 296 298 294 294 295 297 297 296 295 299 302 303 303 306 303 301 298 296 295 296 296 296 295 296 296 296 296 296 296 296 299
297 297 297 296 290 289 288 289 288 288 289 292 292 292 291 290 291 293 291 291 291 290 291 290 291 291 292 292 293 293 294 295 297 296 295 294 294 292 292 292 291 290 291 295 297 294 294 295 294 296 295 293 291 297 301 302 305 305 303 301 297 294 294 295 294 295 295 296 295 296 296 295 296 299
293 293 294 294 290 288 288 288 289 289 289 289 291 290 289 290 292 290 289 289 290 289 289 289 289 289 290 290 291 291 292 292 293 294 294 295 295 295 293 292 292 291 293 295 296 295 293 294 293 295 295 295 296 296 299 303 305 303 305 305 301 298 298 297 297 294 295 295 295 295 295 295 297 299
293 294 297 293 290 289 289 288 289 289 288 288 290 290 289 289 288 289 289 289 288 288 288 288 288 288 289 289 289 290 291 291 293 293 293 294 294 295 296 295 293 292 292 297 294 295 293 293 293 293 293 293 294 295 294 298 305 303 304 303 301 300 299 298 296 294 294 294 295 295 295 295 296 296
294 295 297 293 290 288 288 288 288 288 288 288 289 288 288 288 288 288 288 288 288 288 288 288 287 288 288 288 288 289 290 291 292 292 293 294 294 295 296 296 297 296 296 297 298 297 295 293 294 292 292 292 291 292 293 293 297 303 302 300 300 299 299 298 296 295 295 294 294 294 294 293 293 294
294 295 298 295 289 289 289 288 288 288 289 289 289 289 288 288 288 288 288 288 288 288 288 287 287 287 288 288 288 289 290 291 292 293 293 294 295 295 295 296 296 296 297 297 297 297 296 294 294 294 293 292 291 290 290 294 295 296 298 299 299 299 297 296 295 294 294 294 294 295 294 293 293 293
296 292 289 289 289 289 289 289 289 289 289 289 288 288 288 289 288 289 289 289 289 288 287 288 288 288 289 289 290 291 291 292 292 292 292 293 294 294 295 295 295 295 296 297 296 296 295 295 294 294 294 294 292 292 293 293 295 294 297 295 296 297 296 296 295 293 293 293 293 293 293 293 292 293
289 289 289 289 290 290 290 291 291 291 291 290 289 288 289 289 289 289 289 289 289 288 288 288 288 289 290 290 291 291 292 291 291 291 291 291 291 292 292 292 293 294 295 295 296 295 295 295 295 294 294 294 293 293 293 293 293 296 296 296 295 294 295 295 294 293 293 292 293 293 293 294 293 293
292 291 291 290 289 289 289 289 289 288 289 289 290 291 291 292 291 291 290 290 289 289 289 289 290 290 290 291 290 290 290 290 291 292 291 291 291 291 291 291 290 291 293 295 295 295 295 295 295 295 293 293 294 294 294 295 293 294 296 296 294 290 293 294 293 292 293 293 293 292 292 292 292 293
290 290 290 290 292 293 293 293 292 292 291 290 288 290 289 289 290 290 290 290 289 289 289 289 289 289 290 289 289 290 290 290 291 291 291 290 290 291 291 289 288 289 291 292 294 294 293 295 294 295 294 293 292 293 295 295 294 295 296 296 294 295 295 293 293 292 293 293 291 291 291 291 292 292
290 290 290 287 289 289 286 286 286 288 288 287 289 290 290 289 289 289 288 288 288 288 288 287 287 287 288 288 288 288 288 289 290 291 290 290 290 290 290 289 288 288 288 289 290 292 293 294 294 294 294 294 294 294 293 290 293 295 295 294 293 293 294 294 293 292 293 291 290 290 289 291 292 293
285 286 287 286 286 286 287 287 287 287 287 287 287 287 287 288 288 288 288 288 288 288 287 287 287 287 287 286 287 287 287 288 288 289 289 289 289 288 288 287 288 289 288 288 289 290 291 292 293 293 293 293 295 295 294 292 292 295 295 295 293 292 293 294 293 293 292 291 289 288 288 289 291 292
285 286 286 286 286 286 287 286 287 287 286 286 287 287 286 287 287 287 287 288 287 287 287 286 287 286 286 286 286 286 286 286 287 288 288 289 289 288 287 287 287 288 288 288 288 289 290 290 290 290 291 292 292 295 297 296 293 294 295 293 293 292 292 293 292 292 292 290 290 287 286 287 288 291
285 286 286 286 286 287 287 287 287 287 286 287 287 286 286 286 286 286 287 287 287 287 286 286 286 286 286 286 286 286 286 286 286 286 286 287 287 287 287 287 287 287 288 288 288 289 289 289 289 288 286 286 287 287 288 295 296 295 293 289 292 291 291 292 292 292 290 289 289 287 286 286 287 290
286 287 286 286 286 287 287 287 287 287 287 287 287 286 286 286 286 287 288 287 287 286 286 286 286 286 286 286 285 285 286 285 285 285 285 286 286 286 286 286 286 287 287 288 289 289 289 288 288 288 286 285 285 285 287 290 292 296 297 291 290 291 291 290 289 288 289 290 288 287 286 287 287 289
286 286 286 287 287 287 287 287 286 286 286 287 286 286 287 287 287 287 288 287 286 286 286 286 286 285 285 285 285 285 285 285 285 285 285 285 285 285 285 285 285 286 286 287 288 288 289 288 288 288 287 285 284 285 285 288 289 290 295 294 290 289 290 289 288 287 287 289 288 288 289 287 287 288
288 287 287 287 287 287 286 286 286 286 286 286 286 286 286 286 286 286 286 286 286 286 286 285 285 285 285 285 285 285 284 284 284 284 285 285 285 285 285 285 285 286 286 286 287 287 288 287 288 288 288 286 285 286 287 287 287 289 291 294 292 290 289 289 288 287 287 286 286 286 286 287 287 287
287 288 288 288 287 287 287 286 286 286 286 286 286 286 286 286 286 285 285 285 285 285 285 285 285 285 285 285 285 285 285 285 284 285 285 285 285 285 285 285 285 286 285 285 285 286 287 287 288 288 288 289 289 288 288 288 288 287 287 289 293 292 290 289 288 287 286 286 287 286 285 286 285 285
287 287 288 288 287 287 286 287 287 286 286 286 286 286 286 286 285 285 285 285 285 285 285 285 285 285 285 285 285 285 284 285 285 285 285 285 285 285 285 285 285 285 285 285 285 286 286 288 290 288 290 290 288 288 288 287 286 285 286 287 290 291 291 291 290 288 287 287 287 286 285 284 284 284
287 287 287 288 287 286 287 287 287 286 286 286 286 286 286 286 285 286 285 285 285 285 285 285 285 285 285 285 285 285 285 285 285 285 285 285 285 285 285 285 285 285 285 285 285 286 288 290 289 289 289 289 288 286 285 286 285 285 285 286 287 289 291 290 290 290 290 288 286 285 284 284 285 283
287 287 287 287 287 287 287 287 286 286 286 286 286 286 285 285 285 285 285 285 285 285 285 285 285 285 285 285 285 285 285 285 285 285 285 285 285 285 285 285 285 285 286 286 287 287 287 288 290 289 288 288 287 287 285 286 286 285 285 285 286 287 288 289 290 289 289 289 289 288 287 286 284 281
287 287 287 287 287 287 287 287 286 286 286 286 286 285 285 285 284 285 285 285 285 285 285 285 285 285 285 285 285 285 285 285 285 285 285 285 286 286 285 285 286 286 286 286 286 287 287 287 288 288 287 287 287 287 286 285 285 285 285 285 285 286 286 287 287 287 287 287 288 288 288 287 287 287
287 287 287 287 287 287 287 287 287 286 286 286 285 285 285 285 284 285 285 285 285 285 285 285 285 285 285 285 285 284 285 286 285 285 286 286 286 286 286 286 286 285 285 286 286 286 287 287 288 288 288 287 288 287 286 286 285 285 285 285 285 285 286 286 286 285 285 285 286 287 287 287 287 287
Wind_Speed
2 1 0 1 5 2 1 4 4 4 4 4 4 4 1 2 1 3 4 5 5 7 9 6 6 9 8 7 6 6 3 4 4 2 2 2 2 3 5 6 8 9 10 11 13 14 14 13 13 12 12 12 13 12 12 12 12 15 17 19 20 18 18 18 18 19 19 20 19 17 17 17 16 15
2 1 2 2 5 2 1 2 1 1 1 2 3 3 4 2 1 2 2 4 3 5 4 5 6 8 8 7 6 5 3 6 3 1 1 2 2 4 6 9 9 9 10 11 12 13 14 14 14 13 14 14 13 12 13 13 13 14 17 18 19 20 19 19 20 19 20 19 18 16 17 19 18 16
2 2 1 1 2 2 1 2 3 2 1 2 3 4 5 4 3 3 2 3 2 4 5 4 5 7 6 6 6 5 6 8 7 4 3 2 5 1 4 8 10 11 13 13 14 15 15 15 15 14 14 14 14 14 14 14 13 13 15 18 19 20 20 21 21 21 21 21 20 18 15 18 19 19
2 2 1 1 3 3 2 2 2 0 1 3 1 1 2 3 1 2 2 3 6 3 4 4 5 5 6 7 7 5 5 5 7 5 4 4 6 5 5 8 11 13 14 15 15 16 15 14 14 15 15 15 15 14 14 14 14 13 14 15 18 19 20 21 22 23 22 22 21 21 18 17 20 20
3 3 2 4 3 2 1 0 2 2 1 2 4 3 2 3 3 2 2 3 5 3 2 5 5 5 4 4 4 6 5 6 6 6 5 5 4 5 6 6 11 14 15 16 17 17 16 15 15 15 14 14 14 14 13 14 14 14 15 15 15 17 19 20 19 21 22 22 20 20 19 18 19 20
3 3 1 1 5 3 1 2 2 3 4 5 3 0 0 1 1 1 2 2 3 6 3 4 5 6 5 6 4 5 5 5 4 5 4 5 5 5 5 6 4 9 11 13 15 17 17 15 14 13 14 14 14 14 14 13 13 14 15 15 16 17 18 18 19 19 20 20 20 20 20 19 19 20
4 3 2 1 2 2 1 1 1 1 2 1 2 3 2 2 1 2 2 2 4 6 6 4 6 4 4 3 5 6 5 5 5 6 6 6 6 5 5 6 5 10 12 11 9 12 14 14 15 15 15 16 16 16 15 15 15 15 15 15 16 16 17 18 18 18 19 20 20 20 21 21 21 21
5 5 4 3 3 3 2 3 2 1 1 2 1 2 3 3 3 2 1 3 3 3 5 3 4 4 5 5 5 7 6 6 5 5 6 5 6 5 6 5 6 5 6 8 8 8 9 10 11 12 12 13 14 15 15 15 16 16 16 16 16 16 16 17 18 19 20 20 22 22 22 23 21 22
4 6 4 4 3 3 3 1 1 2 1 2 2 2 2 3 2 3 3 4 4 5 6 6 4 5 5 6 7 6 7 5 5 5 6 5 5 5 5 4 6 9 13 14 12 12 12 13 14 15 16 16 16 15 15 15 16 16 17 17 17 16 16 17 17 19 20 21 21 22 23 22 24 24
3 5 4 3 2 2 2 2 0 0 0 1 2 2 3 3 4 4 4 4 4 5 6 5 6 4 5 4 4 5 6 7 7 6 5 5 5 5 6 6 6 7 8 4 1 5 8 11 14 15 15 16 15 15 15 15 16 16 17 17 17 17 17 17 17 18 19 21 21 21 22 21 23 24
4 3 3 3 3 2 1 1 1 1 0 0 1 2 2 3 3 3 3 3 4 4 5 6 6 6 6 6 7 5 4 6 5 5 5 5 5 5 6 5 3 3 4 7 11 8 7 9 10 13 16 16 17 17 17 17 17 17 18 17 17 16 16 17 17 18 18 20 20 21 21 22 23 24
4 4 3 3 3 3 2 1 1 2 3 3 3 3 3 4 4 4 4 4 4 5 5 5 6 4 5 6 5 5 5 5 5 6 5 6 4 5 4 4 6 6 6 7 7 10 12 12 11 14 17 19 20 20 18 18 18 19 18 17 17 17 17 17 18 18 19 19 20 20 21 21 22 23
3 3 2 2 1 4 6 7 6 4 4 1 1 3 2 3 3 3 4 4 4 5 5 5 5 5 5 5 5 6 4 4 5 4 5 5 6 6 6 7 6 6 6 5 6 6 5 8 8 8 6 7 14 15 18 14 19 19 17 18 18 18 18 18 18 19 19 19 20 20 20 21 21 22
3 3 3 3 9 8 6 6 5 3 3 4 4 3 3 3 3 3 3 4 4 5 5 5 5 6 6 5 5 5 5 6 6 7 6 6 6 6 6 5 4 4 7 7 7 6 5 6 7 6 8 7 7 8 9 10 13 16 20 19 19 19 19 19 19 18 18 18 18 19 19 20 20 21
3 3 3 3 7 7 6 5 7 8 9 9 9 9 8 6 4 3 4 4 4 5 6 5 6 7 8 7 6 5 6 5 6 7 7 7 6 5 6 7 3 3 3 4 6 7 5 7 9 9 9 8 8 4 7 13 15 17 17 18 19 19 19 18 17 16 16 17 17 17 18 19 20 20
3 3 3 3 3 4 4 4 6 8 10 10 10 11 11 12 12 10 7 5 5 5 6 6 6 6 6 6 6 8 8 6 7 7 7 7 7 8 7 6 6 3 8 8 7 7 3 5 6 8 8 8 7 10 12 11 13 15 17 17 18 19 19 18 18 18 17 17 16 17 18 18 19 20
3 3 3 2 2 1 3 2 2 2 4 10 13 13 11 10 10 11 12 12 9 5 7 7 8 6 7 9 7 5 6 7 9 7 7 6 7 7 8 6 7 8 10 11 9 9 4 5 8 8 6 7 8 10 12 19 15 12 17 18 17 17 18 18 17 17 17 17 17 17 17 17 17 18
3 2 1 0 1 2 2 3 2 2 3 1 2 4 4 6 9 12 14 15 16 13 9 8 9 6 4 8 7 6 7 7 4 4 5 6 8 8 9 10 11 9 7 8 8 11 7 5 8 11 9 8 9 7 12 16 18 18 14 15 17 18 18 18 18 17 17 17 17 16 16 16 16 17
1 2 1 0 1 1 3 1 3 2 3 3 3 4 4 4 4 3 4 5 8 9 8 9 10 10 8 8 9 8 3 1 3 3 5 5 7 9 10 11 10 10 7 9 8 14 8 4 9 10 8 8 10 8 10 14 15 16 16 15 18 18 18 17 17 17 17 16 15 14 15 16 16 16
2 1 2 2 3 3 2 5 6 4 2 1 2 3 4 4 4 5 6 9 8 6 5 6 8 8 8 9 6 4 6 8 7 8 7 6 6 9 10 12 8 9 5 7 9 10 9 3 9 10 7 8 10 9 9 14 19 17 13 15 17 16 13 12 11 11 10 11 12 12 13 13 14 14
3 2 3 3 3 3 1 7 8 5 5 2 2 3 4 5 5 5 5 8 11 11 12 12 13 14 15 16 17 18 18 12 8 6 7 8 6 10 13 12 10 10 6 6 7 9 12 6 8 10 7 8 9 7 8 8 9 10 9 6 3 4 4 3 3 5 7 8 8 9 11 12 12 13
2 3 7 5 3 3 2 9 7 8 4 2 2 3 5 5 5 5 5 5 5 8 11 11 10 10 11 13 14 15 16 18 11 6 10 7 5 10 9 13 10 9 7 5 5 9 9 7 7 10 8 7 6 8 9 11 7 2 3 8 9 8 7 6 6 6 5 6 8 9 10 11 10 7
2 2 1 5 6 2 6 8 7 7 6 2 2 3 3 5 6 6 5 5 6 6 7 7 8 9 10 9 8 8 12 13 11 9 10 6 7 10 9 10 10 11 8 4 6 11 9 8 8 6 8 8 6 6 7 8 5 4 4 3 4 6 7 6 6 5 6 7 8 9 9 9 8 4
3 4 5 6 9 11 10 10 9 8 7 3 3 4 4 5 8 4 5 7 8 9 8 9 8 9 8 9 8 8 8 9 7 8 8 8 8 9 9 8 9 10 7 2 4 7 6 6 8 6 6 7 6 7 9 8 2 7 5 4 4 1 3 4 3 2 2 5 6 7 8 9 9 5
3 4 2 5 6 9 9 7 6 4 3 2 1 2 4 6 7 9 9 10 11 10 10 9 9 8 7 7 7 8 8 9 9 9 9 8 8 9 10 10 10 10 7 4 5 5 7 5 7 7 8 7 6 7 8 6 4 4 4 5 5 3 4 4 4 2 3 1 4 7 8 10 12 8
3 3 2 4 4 7 8 4 1 4 2 4 2 4 8 11 12 9 7 6 6 6 7 7 7 7 7 7 7 8 8 8 9 8 7 7 8 8 8 9 10 10 7 4 9 8 6 5 5 7 7 7 8 7 8 10 2 2 5 6 6 4 4 4 5 4 4 2 0 2 6 9 8 9
4 4 2 5 5 4 2 2 3 5 7 5 5 10 11 11 11 9 6 6 6 7 7 7 7 7 7 8 8 9 9 8 8 8 8 9 9 9 9 9 8 10 8 6 6 8 8 7 3 5 7 5 8 8 7 8 6 2 3 5 5 5 5 4 4 4 4 4 2 7 8 9 9 9
4 4 3 1 3 3 2 4 5 6 7 7 11 13 13 13 11 6 6 6 7 7 7 7 8 8 7 7 8 7 7 8 9 9 9 9 9 8 7 8 8 7 7 8 8 8 9 9 8 7 7 7 8 8 9 9 9 8 2 3 4 5 5 4 3 3 3 2 1 3 5 5 6 8
3 6 10 11 9 9 9 10 11 9 10 15 15 14 13 10 5 6 6 7 7 7 6 7 7 7 7 7 7 8 8 9 9 9 9 10 10 9 9 9 8 8 6 5 5 6 7 7 7 7 8 8 8 8 8 8 8 9 6 1 1 3 4 4 3 3 1 1 1 2 3 5 5 6
12 11 9 9 10 9 9 9 7 6 6 7 7 9 10 5 6 5 6 6 7 7 7 7 7 7 6 7 8 8 8 7 7 8 8 8 8 8 8 8 8 7 8 7 7 7 7 7 7 7 8 8 8 10 9 9 8 8 5 0 3 3 3 4 3 3 3 1 1 2 3 3 5 6
4 5 5 6 9 10 14 15 13 11 10 9 7 4 3 3 3 4 4 5 6 7 7 7 7 7 8 8 8 7 8 8 8 7 8 7 7 7 7 9 9 7 7 7 7 7 7 7 7 7 8 8 8 9 9 9 10 8 8 3 5 3 3 4 3 3 3 3 3 3 4 4 4 4
4 4 5 7 5 5 4 3 1 1 1 2 4 5 5 5 6 7 9 9 7 8 8 8 8 7 6 6 6 6 6 6 6 5 6 7 7 7 7 8 8 7 7 7 6 6 6 6 6 7 8 8 9 8 7 8 8 7 8 4 3 3 5 6 5 3 3 4 4 3 4 4 4 4
4 3 4 3 5 3 3 4 4 4 4 3 4 5 5 5 6 6 6 7 7 8 7 7 7 7 7 8 7 7 8 7 7 6 8 8 8 8 7 8 8 7 7 7 6 6 5 6 6 7 8 8 10 10 9 8 8 7 7 3 3 3 4 4 5 5 5 5 3 3 4 4 4 4
2 5 5 3 3 4 4 4 4 4 3 4 4 4 5 6 6 7 7 7 7 6 7 7 7 8 7 8 8 9 9 9 8 8 8 8 7 8 8 9 8 7 8 8 7 7 6 6 6 7 8 9 9 10 10 10 9 7 4 2 4 4 4 5 5 5 5 4 6 4 3 3 3 4
2 4 3 3 3 3 3 3 3 3 3 3 4 5 5 5 6 5 6 6 5 6 7 7 8 8 8 9 8 9 8 9 9 8 7 8 8 9 9 9 9 8 8 8 8 6 6 6 6 7 7 7 8 8 11 12 10 10 7 4 2 4 4 4 5 4 3 3 4 5 3 3 4 4
3 4 3 3 3 3 3 3 3 4 4 5 5 6 6 6 6 7 7 7 7 7 7 8 8 8 9 9 9 9 9 9 9 8 8 8 8 9 9 10 10 10 8 9 8 6 6 7 5 6 7 7 7 8 7 11 14 9 7 4 4 4 3 5 4 4 4 4 3 5 4 5 3 4
4 2 3 3 4 4 4 4 4 5 6 5 5 5 6 7 7 7 8 8 8 7 8 8 9 9 9 9 9 9 9 9 9 8 9 8 8 9 9 9 9 9 9 10 8 8 7 8 7 7 8 8 9 10 8 2 6 7 8 6 4 5 7 6 5 3 3 5 4 3 4 4 4 5
4 2 4 4 5 5 3 4 4 5 5 6 6 6 6 7 7 8 8 8 8 8 8 9 9 9 9 9 9 10 9 9 9 9 9 8 8 9 9 10 9 8 9 9 9 9 8 9 9 8 8 10 9 9 7 2 1 3 6 9 7 6 7 8 6 5 4 3 3 3 5 6 6 5
2 5 4 4 4 5 4 4 5 6 6 6 6 6 7 8 8 8 8 9 9 9 9 9 9 9 9 10 9 10 10 9 9 9 9 9 9 10 10 10 10 9 9 10 9 9 8 9 9 8 9 9 10 8 2 3 4 5 4 11 10 9 8 9 7 6 6 5 5 7 8 7 10 14
5 4 3 4 5 5 4 4 4 4 5 6 7 7 8 9 9 9 9 9 9 9 9 10 10 10 10 9 9 9 10 11 11 10 10 10 9 9 9 8 9 8 8 9 9 8 9 9 8 9 9 10 8 5 3 2 1 2 3 2 15 16 10 8 10 11 7 6 8 10 9 8 7 3
4 3 3 4 4 4 4 4 5 5 6 6 7 8 9 9 10 9 9 10 10 10 10 10 10 10 10 10 9 9 10 10 10 10 10 10 10 10 12 11 10 9 9 10 9 8 9 9 9 12 11 7 4 2 1 4 3 1 2 4 6 2 12 14 13 12 9 10 9 10 9 8 8 7
3 3 3 3 3 3 5 5 5 5 6 6 7 9 9 9 9 13 12 12 11 10 10 10 10 9 9 9 9 9 10 10 9 10 9 9 10 10 11 10 10 9 9 10 9 8 7 5 6 7 7 6 6 8 8 6 4 2 1 2 3 7 9 8 7 9 15 15 13 10 7 6 5 7
4 3 3 3 3 3 4 4 5 5 6 7 8 9 9 10 10 10 9 10 10 10 9 10 9 9 9 9 9 9 9 10 9 10 10 10 10 10 10 9 9 9 9 9 7 6 5 5 6 6 6 7 7 6 6 5 5 5 4 4 5 6 8 13 15 13 10 9 7 6 6 10 12 9
3 3 3 3 3 4 4 4 5 6 7 8 8 9 9 10 11 10 10 10 10 10 10 10 10 10 10 9 9 8 8 9 9 10 10 10 9 9 8 8 7 7 7 7 6 6 6 5 5 6 6 7 6 6 5 6 7 6 6 6 6 8 9 8 9 11 11 11 12 12 14 13 12 11
3 3 3 3 4 4 4 5 6 6 7 8 9 9 9 10 10 10 10 10 10 10 10 10 10 9 9 9 8 9 9 8 9 9 9 9 8 7 6 6 6 6 6 6 5 5 5 5 5 5 7 7 6 5 6 8 8 7 7 9 9 8 8 8 9 8 7 6 9 16 16 18 19 20
Wind_Direction
122 128 321 123 112 73 31 62 23 20 12 345 340 332 317 117 299 345 335 323 350 353 356 347 355 17 10 7 3 14 70 132 164 220 242 260 296 254 221 202 213 216 217 219 225 228 228 230 232 235 237 241 239 233 222 220 222 223 219 215 216 216 217 215 213 217 221 222 221 215 208 202 212 212
89 54 36 356 102 82 53 93 140 74 14 317 338 334 343 15 335 360 325 310 324 314 336 354 340 348 360 351 357 351 14 168 211 274 325 345 319 166 188 206 213 220 221 227 232 231 228 226 226 227 229 230 232 237 238 228 222 220 222 224 219 214 214 216 215 216 220 222 223 216 207 199 202 208
127 143 161 292 99 94 60 193 167 159 140 48 340 356 355 350 17 1 336 316 308 357 323 325 336 331 332 346 345 337 335 324 335 331 318 300 302 219 220 220 224 222 221 224 226 228 226 225 224 226 230 230 227 227 231 236 233 229 223 220 221 220 216 215 215 216 218 220 224 223 209 200 199 204
152 123 176 60 50 60 340 4 44 18 161 151 164 317 315 326 340 352 298 277 286 309 298 305 318 328 330 325 312 311 310 312 342 330 316 307 305 277 274 253 244 239 239 236 234 233 231 227 225 224 226 230 233 228 225 230 234 231 228 226 222 220 221 220 216 216 218 219 217 222 215 204 203 203
164 179 184 157 138 114 235 279 312 258 224 194 181 197 231 237 242 216 255 280 288 293 324 334 318 315 323 306 301 301 304 301 298 298 291 296 294 278 263 258 260 254 242 239 241 239 234 228 223 221 222 228 233 235 232 229 228 228 226 225 227 227 225 225 222 221 220 218 219 220 219 211 209 207
184 161 192 201 137 170 81 39 304 13 7 346 325 188 210 311 4 349 344 306 305 298 313 308 320 315 301 284 275 271 276 275 277 276 275 268 262 272 279 280 279 271 275 254 245 243 237 230 223 218 218 222 226 229 231 233 234 235 232 226 223 224 226 229 227 225 225 223 220 218 217 214 209 209
172 152 183 198 118 114 186 150 307 286 272 311 314 344 356 329 304 286 273 282 286 294 292 295 293 281 282 291 317 312 295 291 290 284 277 273 267 262 261 272 277 266 273 298 287 262 244 224 217 216 217 217 218 220 223 223 225 229 233 233 228 225 224 224 226 227 227 225 223 219 218 217 214 211
164 166 166 198 152 146 157 206 212 295 260 206 249 347 327 329 303 271 252 232 238 251 278 271 274 288 299 292 289 286 285 283 281 274 278 274 272 261 260 260 267 286 316 291 271 251 245 253 250 238 230 228 224 222 221 222 223 224 226 228 230 228 225 223 221 223 224 225 226 225 221 220 218 218
167 158 178 181 183 158 165 130 222 225 56 9 7 327 317 302 336 353 349 336 328 316 301 300 295 301 294 288 283 282 289 288 282 295 296 301 299 301 294 294 291 294 291 285 261 243 232 225 225 227 227 224 224 224 224 223 224 225 225 225 226 226 225 224 223 222 223 224 225 226 225 223 221 221
173 149 163 181 154 133 164 197 150 48 359 7 345 344 340 325 315 301 299 290 279 269 268 272 287 276 286 293 280 288 289 283 283 275 269 267 275 286 295 283 278 275 274 287 263 277 276 263 251 242 234 231 229 228 228 228 228 229 229 228 226 224 223 223 224 223 223 224 224 225 227 224 224 223
148 146 168 158 153 167 168 168 172 162 106 36 338 334 314 310 324 317 307 300 297 293 288 283 272 275 265 257 272 269 273 285 281 289 296 288 270 255 248 270 288 311 311 317 312 303 273 246 238 238 239 239 236 232 230 229 230 230 230 229 228 227 224 224 223 224 225 225 225 225 225 225 224 222
152 167 159 153 149 162 182 206 186 83 68 45 2 341 342 333 323 312 305 302 291 287 286 282 289 282 287 286 273 275 276 276 287 268 262 271 295 314 321 323 321 310 308 298 293 291 290 290 268 245 238 235 233 233 234 235 233 232 230 228 226 225 224 223 222 223 224 225 226 226 225 225 226 226
159 144 143 133 156 102 98 96 94 105 116 95 287 283 299 300 310 308 306 296 291 286 287 289 290 294 293 289 303 311 309 291 281 296 326 303 304 302 304 296 286 277 278 270 273 281 290 289 285 289 274 240 239 243 237 237 233 232 228 226 225 224 223 222 223 222 223 223 224 225 226 226 226 228
154 158 145 168 119 133 136 135 151 165 174 192 214 243 270 298 310 312 309 304 305 310 301 296 302 298 291 297 302 309 307 310 312 310 303 291 284 287 276 279 265 272 267 271 271 269 257 256 272 269 266 269 228 234 230 228 231 227 224 223 220 221 221 222 221 222 223 225 226 227 227 228 228 228
159 154 173 162 152 161 164 186 210 224 231 223 224 237 242 234 226 254 262 264 272 278 280 286 292 288 292 294 304 299 305 311 331 334 329 312 309 289 286 281 289 263 326 316 311 302 313 330 314 311 309 307 310 281 247 250 239 238 233 225 224 222 223 221 220 220 222 223 226 228 229 230 230 230
154 180 188 201 158 171 188 207 214 227 232 230 228 229 229 234 240 232 230 248 263 262 268 272 270 283 283 305 325 314 318 329 345 331 325 318 316 315 306 299 287 315 352 323 308 288 295 289 283 288 289 292 290 290 286 267 249 245 237 231 224 222 220 217 216 216 217 219 221 225 227 229 230 230
163 179 197 170 158 186 157 172 259 252 220 223 230 228 234 242 242 246 246 243 242 248 254 260 266 262 280 283 283 297 314 333 313 314 309 320 326 326 318 316 327 332 337 326 311 298 309 338 305 292 287 294 297 298 301 301 294 243 243 236 225 220 217 217 215 215 215 216 218 220 224 228 231 232
164 159 130 148 192 210 217 230 230 222 242 276 198 222 225 236 245 243 243 245 245 244 249 256 261 260 273 276 282 294 308 311 329 349 322 339 323 315 302 306 300 300 313 300 304 289 289 292 288 281 284 283 279 273 275 273 276 280 259 236 225 218 213 213 211 210 212 214 215 217 219 222 227 230
138 160 166 187 301 312 291 34 72 28 15 7 341 331 316 299 297 292 276 241 234 243 240 242 249 256 256 263 268 273 278 315 274 280 287 292 292 296 297 291 286 290 289 291 293 282 295 274 274 273 280 277 273 275 275 277 278 272 262 239 225 218 213 209 207 206 208 212 213 216 219 219 222 226
168 196 201 218 237 239 219 113 95 87 64 15 316 298 290 286 280 275 269 275 282 268 241 228 235 241 246 250 256 263 273 281 284 283 282 278 281 286 284 279 289 276 280 268 272 277 283 266 276 279 276 274 275 277 272 280 278 280 263 243 230 225 219 213 211 209 208 210 214 219 221 222 221 224
191 210 205 212 232 249 159 147 141 161 141 234 276 282 280 274 275 273 279 279 278 277 277 280 283 282 281 279 276 276 271 258 254 273 275 272 274 272 274 273 271 270 272 262 265 276 280 281 272 279 275 273 275 277 278 279 273 279 270 239 181 129 127 158 198 219 219 220 225 227 228 226 221 222
197 233 226 208 223 234 188 168 167 169 159 224 253 269 277 283 284 286 292 289 288 301 307 315 317 308 301 295 290 284 279 278 268 247 258 264 268 268 265 273 268 270 261 271 311 297 280 309 295 297 294 283 262 262 257 257 247 195 122 127 131 132 140 153 178 201 211 221 226 230 230 228 221 218
358 352 146 218 233 260 47 87 67 39 6 330 307 296 302 291 287 289 313 330 334 336 330 318 318 310 311 310 304 301 300 284 259 235 245 250 246 260 264 269 281 275 260 231 237 254 272 271 273 283 296 286 284 269 267 263 215 154 124 104 102 134 146 165 171 185 201 212 218 225 223 221 202 195
358 360 344 27 25 69 85 77 76 61 50 23 356 350 318 301 288 343 340 316 310 303 300 297 298 295 298 295 291 287 281 276 270 259 247 243 244 253 260 261 261 267 280 270 301 292 293 303 297 309 294 303 310 316 309 316 68 131 135 117 95 113 111 111 101 135 205 218 217 216 213 200 182 174
340 322 339 87 68 87 94 115 111 106 89 81 314 293 275 271 297 318 305 304 303 294 292 289 290 290 291 286 284 278 272 271 267 262 256 251 244 247 253 259 263 268 278 273 279 273 294 326 313 319 305 298 302 304 303 314 33 46 66 89 86 73 57 39 48 35 8 112 198 191 189 184 179 160
304 293 318 119 118 91 76 48 15 321 315 265 248 258 259 273 278 279 278 290 290 286 291 294 292 292 288 287 287 286 287 288 285 282 272 256 257 259 254 250 254 259 262 295 329 311 308 295 313 319 314 317 307 328 328 317 348 84 87 84 79 60 51 40 35 3 343 317 358 147 162 166 156 145
302 316 354 120 128 108 176 179 207 229 251 262 249 246 251 253 259 267 276 274 277 282 285 286 285 283 281 282 282 285 288 285 282 281 278 276 271 267 268 271 257 254 257 243 241 267 277 281 273 278 288 289 297 306 301 299 302 355 90 91 96 84 75 55 36 8 348 345 14 90 96 98 106 107
289 280 305 1 318 344 300 272 280 282 271 266 263 268 272 270 270 271 267 261 259 263 264 266 268 267 267 267 270 270 268 269 274 279 285 286 282 278 276 276 278 270 258 246 246 239 249 262 269 265 271 282 285 288 292 295 293 299 304 74 90 93 84 88 80 35 11 352 12 79 103 99 101 99
256 332 333 331 330 324 314 292 280 271 266 264 267 267 266 269 267 255 253 260 270 272 270 267 267 268 264 263 264 260 260 267 272 278 281 283 285 286 283 281 281 286 286 279 268 261 262 263 266 268 272 278 280 279 282 285 306 305 318 97 44 92 98 92 116 106 52 351 359 65 91 117 111 113
315 312 330 333 323 309 287 278 266 255 252 271 281 270 262 256 255 256 261 268 270 275 278 278 273 266 260 256 257 259 263 262 263 264 266 268 272 280 283 282 273 269 270 267 261 262 261 262 263 263 261 255 254 270 273 281 276 281 298 152 145 50 96 109 108 112 120 102 59 71 68 82 110 115
337 333 315 285 276 272 271 271 274 277 288 292 280 274 286 290 295 288 285 285 293 290 285 270 262 260 258 261 262 264 264 265 265 265 268 268 267 266 267 269 270 270 262 258 258 259 260 260 262 261 263 261 256 253 258 260 268 270 281 198 170 178 172 117 108 113 133 131 111 90 81 87 91 92
325 316 301 284 277 278 280 289 353 335 323 320 341 339 338 325 317 312 307 303 295 293 294 298 300 297 295 288 285 281 277 275 278 274 269 266 266 257 261 261 262 262 263 262 260 251 248 257 266 267 269 273 271 272 268 263 263 258 265 209 197 140 145 144 142 149 140 134 120 120 119 116 114 107
306 300 293 289 287 300 320 351 352 355 351 352 341 328 319 315 304 299 299 301 301 298 301 300 305 305 306 298 298 292 287 283 280 273 275 275 278 279 269 265 265 260 261 258 256 263 267 271 264 264 264 261 259 264 270 274 267 264 268 227 171 147 143 136 142 150 142 127 130 133 134 137 133 122
302 271 263 287 338 349 3 348 344 336 348 329 324 311 303 297 296 293 292 290 293 300 300 300 299 298 297 294 291 287 284 282 277 274 273 274 269 268 264 266 263 261 259 260 256 256 256 254 257 259 261 263 260 252 251 254 262 261 256 217 165 149 149 135 134 146 148 147 143 141 144 143 131 130
264 288 322 352 348 352 343 325 319 326 316 307 304 302 294 289 293 298 299 298 300 301 298 296 292 288 286 285 284 280 278 275 274 272 263 261 260 259 264 264 263 260 258 259 254 249 249 257 265 274 274 272 271 261 236 235 249 246 262 246 166 137 138 128 132 141 142 125 134 133 136 120 134 134
283 281 346 353 357 346 339 335 342 328 323 315 309 306 310 308 307 303 298 297 299 295 292 289 287 286 284 281 279 278 276 275 274 271 268 260 261 261 256 255 260 262 258 257 257 251 245 248 240 253 264 269 271 274 268 228 223 230 225 208 168 141 130 130 133 136 132 136 135 135 146 149 135 107
259 328 22 6 355 349 339 343 339 332 317 318 314 316 310 305 302 300 300 302 295 292 288 289 287 286 284 281 280 276 275 273 273 269 265 262 259 259 261 260 256 256 257 256 255 254 242 245 235 237 247 257 254 262 267 329 258 240 199 179 158 151 142 133 126 123 127 128 127 131 137 121 115 109
298 7 25 11 357 343 342 342 340 327 323 317 314 307 305 303 304 299 300 296 290 288 287 284 283 282 280 279 279 279 276 271 269 270 266 263 260 257 254 259 258 252 252 254 248 247 239 239 236 229 227 241 250 257 276 299 311 286 200 156 159 153 145 132 136 144 119 96 103 117 104 102 108 100
342 26 7 358 336 349 348 345 331 319 315 315 314 311 306 305 302 301 297 293 290 287 285 283 281 279 280 279 275 275 276 275 271 267 265 259 253 254 255 252 254 250 247 249 243 241 234 233 230 226 224 230 236 237 245 292 271 292 240 181 154 151 159 153 144 131 130 113 89 77 69 81 83 90
26 19 1 353 354 344 344 325 313 311 316 315 310 309 306 302 301 300 297 293 292 289 287 284 283 282 279 276 275 273 268 266 265 264 263 261 257 252 252 250 250 250 244 243 240 233 229 229 222 222 223 228 232 219 216 223 251 323 350 253 173 162 163 159 151 145 128 130 128 118 123 116 113 114
16 358 2 14 348 342 320 320 322 321 314 310 307 307 303 300 297 295 295 293 291 290 289 286 284 282 279 278 274 273 273 269 265 263 262 259 257 254 251 250 252 244 245 247 239 234 229 223 220 215 220 227 200 137 190 248 251 341 350 348 358 123 166 161 154 151 139 145 133 129 127 130 130 128
12 15 360 3 351 324 328 320 326 320 315 314 312 309 306 302 297 294 293 290 287 285 285 285 285 283 280 278 277 274 272 272 271 268 263 261 260 256 248 243 245 241 237 244 240 238 231 214 212 209 213 206 189 202 220 216 182 161 93 22 15 72 88 80 83 127 148 149 141 127 100 89 112 127
26 11 355 343 344 337 330 326 322 325 318 315 312 309 307 304 303 301 298 295 293 291 289 289 285 283 281 279 275 271 271 271 268 266 265 260 257 255 252 241 237 236 236 243 242 240 225 213 203 197 199 200 202 197 211 182 155 144 126 106 99 83 74 83 90 89 80 74 66 95 138 152 156 163
17 358 346 355 340 331 322 330 330 325 321 315 308 307 306 307 304 301 298 296 296 293 291 288 286 283 281 278 276 273 268 269 267 267 267 266 258 250 245 242 235 230 229 233 240 234 229 216 208 191 196 199 187 190 172 149 148 142 133 124 122 109 110 106 89 73 67 63 79 84 81 76 65 78
2 356 357 347 330 325 338 340 332 326 319 314 309 307 307 305 303 301 299 298 294 291 290 287 286 284 283 281 279 277 275 269 268 266 264 262 255 241 236 236 232 222 223 221 223 226 220 220 204 190 195 188 175 161 157 153 142 137 132 129 122 120 124 123 115 104 95 82 87 94 93 95 101 107